[[{"header":{"parameterUnit":"m.s-1","parameterCategory":1,"la1":30.2991,"la2":30.254,"lo1":-89.0895,"lo2":-89.0444,"dy":0.0017,"dx":0.0017,"nx":28,"ny":28,"refTime":"2024-03-03T03:00:00:Z","depth":0,"parameterNumber":2,"parameterNumberName":"U-component_of_WINDS"},"data":[0,0,0,0,0,0,0,0,0,0,0,0,0,0,0,0,0,0,0,0,0,0,0,0,0,0,0,0,0,0,0,0,0,0,0,0,0,0,0,0,0,0,0,0,0,0,0,0,0,0,0,0,0,0,0,0,0,0,-3.865,-3.8651,0,-3.8663,-3.8663,-3.8663,-3.858,-3.8577,-3.8575,-3.8573,-3.8585,-3.8588,-3.859,0,0,0,0,0,0,0,0,0,0,0,0,0,-3.8556,-3.8558,-3.865,-3.8651,-3.8651,-3.8663,-3.8663,-3.8663,-3.858,-3.8577,-3.8574,-3.8572,-3.8584,-3.8587,-3.859,0,0,0,0,0,0,0,0,0,0,0,0,0,-3.8585,-3.8559,-3.865,-3.8611,-3.8607,-3.8663,-3.8663,-3.8663,-3.8581,-3.8577,-3.8574,-3.857,-3.8583,-3.8587,-3.8591,-3.8685,0,0,-3.8602,-3.8604,0,0,0,0,0,0,0,0,-3.8584,-3.8589,-3.8616,-3.8614,-3.861,-3.8616,-3.8634,-3.867,-3.8582,-3.8591,-3.8573,-3.8569,-3.8598,-3.8601,-3.8611,-3.8685,-3.8686,-3.8603,-3.8605,-3.8607,-3.8608,0,0,0,0,0,0,0,-3.8582,-3.8588,-3.8655,-3.8617,-3.8613,-3.8593,-3.8593,-3.864,-3.8614,-3.859,-3.8584,-3.8586,-3.8596,-3.8607,-3.861,-3.8686,-3.8603,-3.8606,-3.8608,-3.861,-3.8839,-3.8843,0,0,0,0,0,0,-3.8585,-3.8587,-3.8655,-3.8656,-3.8588,-3.8597,-3.8598,-3.8618,-3.8613,-3.8609,-3.8589,-3.8582,-3.8602,-3.8606,-3.861,-3.872,-3.8607,-3.861,-3.8612,-3.8836,-3.884,-3.8844,0,0,0,0,0,0,-3.8583,-3.8592,-3.8654,-3.862,-3.8626,-3.8603,-3.8626,-3.862,-3.8631,-3.8613,-3.8608,-3.8606,-3.86,-3.8605,-3.8667,-3.8719,-3.8612,-3.8615,-3.8831,-3.8837,-3.8842,-3.8941,0,0,0,0,0,0,-3.8581,-3.8592,-3.8627,-3.8621,-3.8628,-3.8711,-3.8629,-3.8622,-3.8638,-3.8629,-3.8627,-3.8623,-3.8597,-3.8662,-3.8671,-3.8723,-3.8618,-3.8826,-3.8834,-3.884,-3.8932,-3.8949,-3.8963,0,0,0,0,0,-3.8578,-3.8654,-3.8629,-3.8638,-3.8672,-3.8714,-3.8718,-3.8686,-3.8642,-3.8677,-3.8666,-3.8623,-3.8713,-3.8669,-3.8678,-3.8732,-3.8823,-3.8832,-3.884,-3.8926,-3.8946,-3.8963,0,0,0,0,0,0,-3.8666,-3.8652,-3.8625,-3.8701,-3.8709,-3.87,-3.8743,-3.8709,-3.8729,-3.872,-3.868,-3.8681,-3.875,-3.8747,-3.8699,-3.8823,-3.876,-3.8771,-3.8822,-3.8841,-3.8856,-3.8854,-3.8621,0,0,0,0,0,-3.8694,-3.873,-3.8716,-3.8784,-3.879,-3.8766,-3.8783,-3.8759,-3.8766,-3.8769,-3.8762,-3.877,-3.88,-3.8821,-3.8847,-3.8933,-3.8931,-3.8974,-3.899,-3.9002,-3.9012,-3.9057,-3.9076,-3.8873,-3.8873,-3.8872,0,0,-3.8753,-3.875,-3.8774,-3.8802,-3.8806,-3.8843,-3.877,-3.8812,-3.884,-3.8775,-3.8833,-3.8829,-3.8836,-3.891,-3.8942,-3.891,-3.9068,-3.9013,-3.9023,-3.9026,-3.9068,-3.9087,-3.9104,-3.8878,-3.8877,-3.8876,0,0,-3.8878,-3.888,-3.8937,-3.8943,-3.895,-3.8934,-3.8948,-3.8944,-3.8939,-3.8997,-3.8949,-3.8982,-3.9034,-3.9041,-3.9052,-3.9183,-3.9144,-3.9193,-3.9272,-3.9317,-3.9333,-3.9347,-3.9393,-3.941,-3.9203,-3.9203,-3.9203,0,-3.895,-3.9005,-3.8971,-3.9018,-3.9031,-3.8976,-3.9034,-3.9041,-3.9056,-3.9067,-3.9031,-3.9096,-3.9097,-3.9172,-3.9205,-3.9215,-3.923,-3.9192,-3.9333,-3.9347,-3.9359,-3.9403,-3.9421,-3.9209,-3.9208,-3.9208,-3.9207,0,-3.9093,-3.9132,-3.9177,-3.9194,-3.9213,-3.9265,-3.924,-3.9264,-3.9239,-3.9227,-3.9287,-3.9286,-3.9312,-3.9328,-3.9304,-3.9401,-3.9381,-3.934,-3.9275,-3.9385,-3.9426,-3.9442,-3.9217,-3.9215,-3.9213,-3.9212,0,0,-3.9271,-3.927,-3.9287,-3.9295,-3.9299,-3.9329,-3.9379,-3.9405,-3.9426,-3.9439,-3.948,-3.9527,-3.949,-3.9502,-3.9478,-3.9518,-3.9622,-3.9472,-3.9471,-3.9499,-3.9729,-3.9758,-3.9778,-3.9597,-3.96,-3.9603,-3.9728,0,-3.9393,-3.9478,-3.9451,-3.9537,-3.9573,-3.9522,-3.9566,-3.9574,-3.9565,-3.9595,-3.9585,-3.9618,-3.9567,-3.9574,-3.9611,-3.9601,-3.9667,-3.9592,-3.9635,-3.9636,-3.9633,-3.9799,-3.983,-3.9948,-3.9743,-3.9746,-3.9748,0,-3.9546,-3.9566,-3.9657,-3.9656,-3.967,-3.971,-3.9732,-3.9761,-3.977,-3.976,-3.9775,-3.9744,-3.9793,-3.9731,-3.9799,-3.9748,-3.9765,-3.9763,-3.9767,-3.9768,-3.9698,-3.9804,-3.9985,-4.0002,-3.9773,-3.9771,-3.9769,0,-3.9667,-3.9716,-3.9777,-3.9785,-3.9786,-3.9816,-3.9818,-3.9823,-3.984,-3.986,-3.9871,-3.9897,-3.991,-3.9931,-3.9907,-3.9864,-3.9979,-3.9914,-3.9972,-3.9973,-3.9997,-3.9996,-4.0182,-4.0011,-4.001,-4.001,-4.001,0,-3.9805,-3.9862,-3.9831,-3.9868,-3.9931,-3.99,-3.9963,-3.9959,-3.9965,-4.0,-3.9959,-3.9993,-3.996,-3.9992,-3.9974,-4.0034,-4.004,-4.0034,-4.0028,-4.0037,-4.0038,-4.0046,-4.0036,-4.0015,-4.0014,-4.0013,-4.0012,0,-3.9949,-3.993,-3.9993,-3.999,-3.9991,-4.0037,-4.0034,-4.0069,-4.0058,-4.0104,-4.0113,-4.0096,-4.0131,-4.011,-4.0146,-4.0134,-4.0211,-4.0195,-4.0208,-4.0204,-4.0263,-4.0257,-4.0459,-4.0484,-4.0299,-4.03,-4.0302,0,-4.0037,-4.008,-4.0082,-4.0103,-4.0108,-4.0143,-4.0161,-4.0133,-4.0154,-4.0168,-4.0201,-4.0233,-4.0257,-4.0316,-4.0307,-4.0335,-4.0318,-4.0387,-4.0321,-4.0329,-4.0318,-4.0315,-4.0319,-4.04,-4.0402,-4.0404,-4.0405,0,-4.0196,-4.0185,-4.0213,-4.0239,-4.0262,-4.028,-4.0296,-4.0315,-4.0288,-4.0313,-4.0349,-4.0368,-4.0406,-4.0438,-4.0462,-4.0464,-4.043,-4.0426,-4.0441,-4.0449,-4.0455,-4.0452,-4.0243,-4.0421,-4.0419,-4.0418,-4.0417,-4.0417,-4.0314,-4.035,-4.0357,-4.039,-4.0399,-4.0415,-4.0447,-4.0441,-4.0471,-4.0499,-4.0481,-4.0524,-4.0533,-4.0562,-4.0569,-4.0602,-4.0574,-4.0595,-4.06,-4.0606,-4.0614,-4.0451,-4.0606,-4.0606,-4.0605,-4.0605,-4.0605,0,-4.0469,-4.0472,-4.0503,-4.0526,-4.0552,-4.052,-4.0535,-4.0559,-4.0597,-4.0609,-4.0634,-4.0676,-4.0708,-4.0702,-4.0731,-4.0759,-4.0744,-4.0767,-4.0764,-4.0765,-4.0637,-4.0621,-4.0779,-4.0779,-4.0779,-4.0779,-4.0779,-4.0779,-4.0553,-4.0612,-4.0603,-4.0667,-4.0669,-4.0711,-4.0723,-4.0737,-4.0746,-4.0795,-4.0822,-4.0818,-4.0823,-4.0852,-4.0881,-4.0878,-4.089,-4.0919,-4.0911,-4.0791,-4.0774,-4.0757,-4.0742,-4.0922,-4.0923,-4.1035,-4.1037,-4.1037]},{"header":{"parameterUnit":"m.s-1","parameterCategory":1,"la1":30.2991,"la2":30.254,"lo1":-89.0895,"lo2":-89.0444,"dy":0.0017,"dx":0.0017,"nx":28,"ny":28,"refTime":"2024-03-03T03:00:00:Z","depth":0,"parameterNumber":3,"parameterNumberName":"V-component_of_WINDS"},"data":[0,0,0,0,0,0,0,0,0,0,0,0,0,0,0,0,0,0,0,0,0,0,0,0,0,0,0,0,0,0,0,0,0,0,0,0,0,0,0,0,0,0,0,0,0,0,0,0,0,0,0,0,0,0,0,0,0,0,1.0485,1.0486,0,1.0532,1.0533,1.0533,1.0571,1.0572,1.0572,1.0573,1.0619,1.0619,1.062,0,0,0,0,0,0,0,0,0,0,0,0,0,1.0428,1.0429,1.0485,1.0486,1.0486,1.0532,1.0533,1.0533,1.0571,1.0572,1.0572,1.0573,1.0618,1.0619,1.062,0,0,0,0,0,0,0,0,0,0,0,0,0,1.0462,1.0429,1.0485,1.0511,1.0514,1.0532,1.0533,1.0533,1.0571,1.0572,1.0573,1.0573,1.0618,1.0619,1.062,1.0616,0,0,1.0624,1.0625,0,0,0,0,0,0,0,0,1.046,1.0464,1.0506,1.0509,1.0512,1.0547,1.0529,1.0561,1.0571,1.0549,1.0573,1.0573,1.0594,1.0597,1.0605,1.0618,1.062,1.0624,1.0625,1.0626,1.0626,0,0,0,0,0,0,0,1.0458,1.0462,1.0504,1.0507,1.0511,1.052,1.0526,1.0536,1.0568,1.0551,1.0554,1.0559,1.0596,1.0603,1.0606,1.0621,1.0624,1.0625,1.0626,1.0627,1.0636,1.0635,0,0,0,0,0,0,1.0451,1.046,1.0502,1.0505,1.0487,1.0521,1.0527,1.0535,1.0568,1.0573,1.0559,1.0561,1.0601,1.0604,1.0608,1.0607,1.0626,1.0627,1.0628,1.0636,1.0636,1.0635,0,0,0,0,0,0,1.045,1.0455,1.05,1.0483,1.049,1.0521,1.053,1.0535,1.0543,1.0573,1.0579,1.0561,1.0601,1.0606,1.0614,1.0609,1.0627,1.0629,1.0637,1.0636,1.0635,1.0603,0,0,0,0,0,0,1.0448,1.0454,1.0452,1.0483,1.0491,1.0506,1.0529,1.0536,1.0546,1.0549,1.0577,1.0582,1.0602,1.0612,1.0616,1.0611,1.063,1.0637,1.0636,1.0635,1.0604,1.0601,1.0598,0,0,0,0,0,1.0446,1.044,1.0452,1.0457,1.0489,1.0506,1.051,1.0534,1.0545,1.0544,1.0564,1.0581,1.0609,1.0613,1.0617,1.0612,1.0638,1.0637,1.0636,1.0606,1.0602,1.0598,0,0,0,0,0,0,1.0407,1.0445,1.0458,1.0462,1.0481,1.0512,1.0511,1.0528,1.0543,1.0546,1.0575,1.0581,1.0586,1.06,1.0604,1.0611,1.0626,1.0625,1.0602,1.0598,1.0595,1.0591,1.0631,0,0,0,0,0,1.0399,1.0409,1.0442,1.0442,1.0451,1.048,1.0487,1.0505,1.0525,1.0532,1.0552,1.057,1.0584,1.0591,1.0605,1.0607,1.0614,1.0606,1.0602,1.0599,1.0599,1.0603,1.06,1.0631,1.0631,1.0631,0,0,1.0382,1.0404,1.0409,1.0435,1.0451,1.0462,1.0486,1.0495,1.0503,1.0533,1.0543,1.0559,1.0581,1.0587,1.059,1.0598,1.0592,1.0598,1.0595,1.0596,1.0601,1.0598,1.0596,1.063,1.063,1.0631,0,0,1.0358,1.0375,1.0378,1.0395,1.042,1.0439,1.044,1.0469,1.0481,1.0492,1.0516,1.0525,1.0547,1.0562,1.0573,1.0557,1.0574,1.056,1.0543,1.0547,1.0544,1.0542,1.0538,1.0536,1.0559,1.0559,1.0559,0,1.0334,1.0351,1.0378,1.0387,1.0398,1.0428,1.0432,1.0446,1.0473,1.0481,1.049,1.0519,1.0536,1.0546,1.0543,1.055,1.0553,1.0557,1.0543,1.0541,1.0539,1.0535,1.0534,1.0558,1.0558,1.0558,1.0558,0,1.0321,1.0332,1.0332,1.036,1.0371,1.0377,1.0406,1.0414,1.0431,1.0449,1.0461,1.0482,1.0502,1.0506,1.0521,1.0519,1.0524,1.0537,1.0553,1.0534,1.0531,1.053,1.0555,1.0556,1.0556,1.0557,0,0,1.0272,1.0316,1.0315,1.0329,1.036,1.0369,1.0377,1.0398,1.0405,1.0423,1.0431,1.045,1.0464,1.0476,1.0494,1.0497,1.0485,1.051,1.0511,1.0506,1.0485,1.0476,1.0474,1.0496,1.0496,1.0496,1.0484,0,1.0253,1.027,1.0296,1.0304,1.0316,1.0345,1.0353,1.0372,1.039,1.0403,1.0423,1.0436,1.0452,1.046,1.0464,1.0485,1.0481,1.0486,1.0505,1.0505,1.0499,1.0472,1.0461,1.0449,1.0483,1.0483,1.0482,0,1.0232,1.0251,1.0261,1.0293,1.0299,1.0305,1.0327,1.0339,1.0362,1.0375,1.039,1.041,1.0421,1.0435,1.0451,1.0454,1.0463,1.0475,1.0475,1.0478,1.0493,1.0475,1.0445,1.0444,1.0481,1.0481,1.0481,0,1.0197,1.0225,1.0235,1.0246,1.0283,1.0287,1.0302,1.0327,1.0338,1.0357,1.0365,1.0384,1.0395,1.0409,1.0435,1.0442,1.0448,1.0464,1.046,1.0459,1.046,1.046,1.0432,1.0465,1.0465,1.0465,1.0465,0,1.0174,1.0179,1.022,1.0227,1.0234,1.0264,1.027,1.0289,1.031,1.0321,1.0347,1.0356,1.0389,1.0402,1.0422,1.0433,1.0437,1.0449,1.0454,1.0447,1.0446,1.0454,1.0455,1.0464,1.0464,1.0464,1.0464,0,1.0136,1.0163,1.0177,1.0212,1.0221,1.0225,1.0255,1.0262,1.0283,1.0296,1.0301,1.0332,1.035,1.0377,1.0401,1.0415,1.0423,1.0431,1.0415,1.0419,1.0414,1.0414,1.0391,1.039,1.0422,1.0421,1.0421,0,1.0119,1.0125,1.0161,1.017,1.0186,1.02,1.0213,1.0243,1.0254,1.0283,1.0287,1.0307,1.0324,1.0351,1.0376,1.0396,1.0405,1.0396,1.0408,1.0401,1.0406,1.0406,1.0407,1.0393,1.0392,1.0392,1.0391,0,1.0088,1.0102,1.0119,1.0141,1.0156,1.0174,1.0194,1.0201,1.0235,1.0247,1.0266,1.0279,1.0306,1.0326,1.0349,1.0365,1.0384,1.0387,1.0388,1.0381,1.0372,1.0378,1.0409,1.0388,1.0388,1.0388,1.0389,1.0389,1.0061,1.0068,1.0095,1.0114,1.0132,1.0151,1.0161,1.0183,1.02,1.0224,1.0241,1.0259,1.0284,1.0318,1.0334,1.0348,1.0357,1.0357,1.0357,1.0357,1.0355,1.0369,1.0353,1.0353,1.0353,1.0353,1.0353,0,1.0032,1.0052,1.0068,1.0097,1.0112,1.0129,1.0153,1.0164,1.018,1.0203,1.022,1.0243,1.0262,1.029,1.0312,1.0318,1.0328,1.0323,1.0323,1.0327,1.0345,1.0344,1.0315,1.0315,1.0315,1.0315,1.0315,1.0315,1.0019,1.0032,1.005,1.0073,1.0092,1.0111,1.0123,1.0141,1.0159,1.0184,1.0201,1.0219,1.0244,1.0268,1.0287,1.0295,1.0302,1.0295,1.0305,1.0322,1.0325,1.0329,1.0327,1.0296,1.0296,1.0286,1.0286,1.0286]}]]